Weather in Vasiljevka

Ukraine / Dnipropetrovsk Region     48°42′41″N   35°33′28″E
temp.,
°C
wind,
m/s
gust,
m/s
humid.,
%
clouds,
%
prec.,
mm/h
press.,
hPa
HPBL,
m
19 september, sun
sun1900:00+18sse71259100 0.0 1009562
03:00+17sse61171100 0.0 1008444
06:00+17sse4982100 0.9 1007550
09:00+18ssw4676100 1.9 1007730
12:00+22w456070 0.1 10071311
15:00+24w563831 0.3 10072155
18:00+21w2343100 0.0 100771
21:00+18sse345268 0.1 100774
20 september, mon
mon2000:00+16sw3356100 0.0 100730
03:00+14w3672100 0.0 1007122
06:00+11w599114 0.0 1009430
09:00+12wsw69585 0.0 1010786
12:00+15wsw81144100 0.0 10101593
15:00+16wsw794360 0.0 10101640
18:00+14w574934 0.0 10111195
21:00+12wnw4863100 0.0 1012550
21 september, tue
tue2100:00+11w376887 0.0 1013337
03:00+9wsw3680100 0.0 1013190
06:00+8wsw378288 0.0 1013382
09:00+10w6760100 0.0 10131184
12:00+11w6753100 0.0 10141471
15:00+10wnw6763100 0.0 10141147
18:00+8w5878100 0.0 1015978
21:00+8w5879100 0.1 1016917
22 september, wed
wed2200:00+7w5882100 0.0 1016822
03:00+7w5780100 0.0 1016892
06:00+7w4779100 0.0 1016910
09:00+8w4672100 0.0 1016818
12:00+10wnw5657100 0.0 10161312
15:00+9w5563100 0.1 10161066
18:00+8wsw3468100 0.0 1016683
21:00+7wsw2374100 0.0 1016182
23 september, thu
thu2300:00+7wsw1176100 0.0 101529
03:00+7s1175100 0.0 101438
06:00+7sse1173100 0.0 101459
09:00+8sse1170100 0.0 1014836
12:00+8ese2174100 0.2 1014739
15:00+10ene216475 0.3 1014754
18:00+10nw226099 0.1 101476
21:00+8nnw346873 0.1 1015141